Regional Weather Roundup
Issued by NWS

Home | Current Version | Previous Version | Graphics & Text | Print | Product List | Glossary On
Versions: 1 2 3 4 5 6 7 8 9 10 11 12 13 14 15 16 17 18 19 20 21 22 23 24 25 26 27 28 29 30 31 32 33 34 35 36 37 38 39 40 41 42 43 44 45 46 47 48 49 50
000
ASUS43 KTOP 210859
RWRKS

WEATHER ROUNDUP FOR KANSAS
NATIONAL WEATHER SERVICE GOODLAND KS
400 AM CDT MON APR 21 2014

NOTE:  "FAIR" INDICATES FEW OR NO CLOUDS BELOW 12,000 FEET WITH NO
SIGNIFICANT WEATHER AND/OR OBSTRUCTIONS TO VISIBILITY.

KSZ001>006-013>018-027>032-041>047-211000-
NORTHWEST KANSAS

CITY           SKY/WX    TMP DP  RH WIND       PRES   REMARKS
GOODLAND       CLEAR     49  43  80 NW12      30.06R
HAYS           CLOUDY    55  54  94 CALM      29.97R
HILL CITY      CLOUDY    57  53  86 W7        29.97S
RUSSELL        MOCLDY    54  50  86 SW6       29.94S
$$

KSZ061>065-074>080-084>089-211000-
SOUTHWEST KANSAS

CITY           SKY/WX    TMP DP  RH WIND       PRES   REMARKS
DODGE CITY     MOCLDY    53  50  89 S5        29.99S
ELKHART          N/A     52  45  77 NW6         N/A
GARDEN CITY    CLOUDY    54  52  93 SW12      29.98F FOG
GREAT BEND     MOCLDY    52  46  82 S8        29.95F
LIBERAL        CLOUDY    57  52  82 W8        30.00F
$$

KSZ066>073-081>083-090>101-211000-
SOUTHEAST KANSAS

CITY           SKY/WX    TMP DP  RH WIND       PRES   REMARKS
CHANUTE        CLOUDY    61  58  90 S7        30.00F
COFFEYVILLE    LGT RAIN  61  58  90 S3        30.01S
HUTCHINSON     MOCLDY    54  51  90 S6        29.96F
NEWTON         MOCLDY    55  48  76 SW6       30.01F
PARSONS        CLOUDY    61  56  83 CALM      30.02F
WICHITA INTL   MOCLDY    55  53  93 CALM      29.98R
WICHITA JABRA  MOCLDY    59  56  89 SW6       29.99R
WINFIELD       MOCLDY    54  53  97 SE5       29.99F
$$

KSZ007>012-019>026-033>040-048>060-102>105-211000-
NORTHEAST KANSAS

CITY           SKY/WX    TMP DP  RH WIND       PRES   REMARKS
CONCORDIA      CLOUDY    59  54  83 SW3       29.94S
EMPORIA        CLOUDY    59  56  89 S6        29.98S
LAWRENCE       CLOUDY    62  55  77 CALM      29.98F
MANHATTAN      PTCLDY    58  54  86 S6        29.95F
OLATHE IND     CLOUDY    63  56  78 S10       30.00S
OLATHE EXE     CLOUDY    63  54  72 S7        29.99S
SALINA         MOCLDY    56  51  84 S8        29.95F
TOPEKA BILLARD CLOUDY    63  57  81 CALM      29.98S
TOPEKA FORBES  CLOUDY    60  55  83 S5        29.97S
$$



USA.gov is the U.S. government's official web portal to all federal, state and local government web resources and services.